Location: Alsip
(41.6689°N, 87.7387°W)
Time: 14:04:20
(UTC+00:00)

Cosmos 1818 - Pass Details

Date: 14 July 2020
Orbit: 777 x 796 km, 65.0° (Epoch: 04 August)

Event Time Altitude Azimuth Distance (km) Brightness Sun altitude
Rises 09:43:14 0° 321° (NW) 3,306 6.8 -7.9°
Reaches altitude 10° 09:45:45 10° 316° (NW) 2,372 6.0 -7.6°
Maximum altitude 09:50:56 46° 244° (WSW) 1,056 3.8 -6.8°
Drops below altitude 10° 09:56:05 10° 172° (S) 2,351 5.8 -6.0°
Sets 09:58:34 0° 167° (SSE) 3,274 6.5 -5.7°
